GW2924 Weather Reports


Display with metric or nautical units.
time (UTC)temp
F
wind
direction
speed
MPH
gust
MPH
rain 1hr
in
rain 24hr
in
rain mn
in
humidity
%
barometer
mb
20260504215556 60 293 7.0 14.0 0.00 0.00 0.00 41 1001.4
20260504215054 60 293 8.0 14.0 0.00 0.00 0.00 40 1001.4
20260504214605 60 293 7.0 16.0 0.00 0.00 0.00 38 1001.4
20260504214053 60 315 8.0 16.0 0.00 0.00 0.00 37 1001.3
20260504213553 61 303 6.0 15.0 0.00 0.00 0.00 37 1001.2
20260504213055 60 286 6.0 15.0 0.00 0.00 0.00 40 1001.3
20260504212556 61 291 8.0 15.0 0.00 0.00 0.00 38 1001.3
20260504212056 60 288 9.0 16.0 0.00 0.00 0.00 39 1001.3
20260504211554 61 291 9.0 16.0 0.00 0.00 0.00 37 1001.3
20260504211053 61 269 7.0 14.0 0.00 0.00 0.00 39 1001.1
20260504210553 60 283 8.0 18.0 0.00 0.00 0.00 39 1001.3
20260504210105 60 310 8.0 18.0 0.00 0.00 0.00 42 1001.1
20260504205552 60 253 8.0 16.0 0.00 0.00 0.00 40 1001.1
20260504205056 60 305 8.0 16.0 0.00 0.00 0.00 42 1001.3
20260504204611 60 246 9.0 14.0 0.00 0.00 0.00 41 1001.2
20260504204053 60 289 7.0 17.0 0.00 0.00 0.00 42 1001.4
20260504203553 59 315 8.0 17.0 0.00 0.00 0.00 40 1001.3
20260504203127 60 319 8.0 18.0 0.00 0.00 0.00 40 1001.5
20260504202553 59 249 9.0 18.0 0.00 0.00 0.00 38 1001.4
20260504202053 60 290 7.0 14.0 0.00 0.00 0.00 37 1001.4
20260504201558 60 288 9.0 16.0 0.00 0.00 0.00 34 1001.3
20260504201053 61 323 10.0 16.0 0.00 0.00 0.00 33 1001.1
20260504200553 62 299 8.0 16.0 0.00 0.00 0.00 34 1000.9
20260504200057 62 285 7.0 16.0 0.00 0.00 0.00 36 1001.0
20260504195552 62 289 9.0 18.0 0.00 0.00 0.00 32 1001.0
20260504195052 61 277 8.0 18.0 0.00 0.00 0.00 32 1000.7
20260504194556 62 297 8.0 18.0 0.00 0.00 0.00 33 1000.7
20260504194054 62 291 12.0 18.0 0.00 0.00 0.00 33 1000.7
20260504193553 63 321 9.0 17.0 0.00 0.00 0.00 32 1000.7
20260504193057 64 305 9.0 17.0 0.00 0.00 0.00 30 1000.6
20260504192554 63 297 7.0 17.0 0.00 0.00 0.00 33 1000.6
20260504192053 63 317 11.0 20.0 0.00 0.00 0.00 33 1000.6
20260504191557 63 319 11.0 20.0 0.00 0.00 0.00 31 1000.6
20260504191053 63 329 9.0 17.0 0.00 0.00 0.00 33 1000.3
20260504190554 63 301 8.0 15.0 0.00 0.00 0.00 35 1000.5
20260504190058 62 298 9.0 15.0 0.00 0.00 0.00 34 1000.4
20260504185557 63 291 7.0 14.0 0.00 0.00 0.00 35 1000.2
20260504185056 63 271 6.0 13.0 0.00 0.00 0.00 36 1000.0
20260504184559 63 270 8.0 14.0 0.00 0.00 0.00 37 1000.2
20260504184057 62 290 9.0 14.0 0.00 0.00 0.00 39 1000.1
20260504183558 62 306 6.0 12.0 0.00 0.00 0.00 38 999.9
20260504183104 62 275 7.0 15.0 0.00 0.00 0.00 37 1000.0
20260504182556 62 298 7.0 15.0 0.00 0.00 0.00 36 1000.0
20260504182054 62 211 8.0 15.0 0.00 0.00 0.00 38 999.9
20260504181608 63 305 7.0 13.0 0.00 0.00 0.00 38 999.8
20260504181056 63 323 4.0 15.0 0.00 0.00 0.00 40 999.8
20260504180556 63 63 7.0 17.0 0.00 0.00 0.00 39 999.8
20260504180116 62 296 8.0 17.0 0.00 0.00 0.00 38 999.7
20260504175556 62 288 8.0 15.0 0.00 0.00 0.00 43 999.6
20260504175057 62 316 8.0 15.0 0.00 0.00 0.00 40 999.5
20260504174557 61 261 8.0 16.0 0.00 0.00 0.00 42 999.6
20260504174057 61 245 7.0 16.0 0.00 0.00 0.00 45 999.5
20260504173557 61 103 8.0 14.0 0.00 0.00 0.00 40 999.5
20260504173107 61 276 8.0 15.0 0.00 0.00 0.00 40 999.6
20260504172556 61 226 9.0 15.0 0.00 0.00 0.00 38 999.5
20260504172056 62 266 5.0 13.0 0.00 0.00 0.00 38 999.6
20260504171602 62 196 8.0 13.0 0.00 0.00 0.00 38 999.4
20260504171054 62 289 8.0 13.0 0.00 0.00 0.00 39 999.3
20260504170556 63 285 5.0 12.0 0.00 0.00 0.00 42 999.3
20260504160103 62 302 6.0 11.0 0.00 0.00 0.00 41 999.3
20260504151052 62 302 5.0 12.0 0.00 0.00 0.00 41 998.7
20260504150553 63 302 4.0 11.0 0.00 0.00 0.00 44 998.7
20260504141052 61 287 8.0 13.0 0.00 0.00 0.00 51 998.3
20260504140552 61 307 7.0 13.0 0.00 0.00 0.00 51 998.3
20260504130554 60 237 9.0 14.0 0.00 0.00 0.00 49 998.3
20260504110557 52 252 6.0 14.0 0.00 0.00 0.00 57 997.7
20260504100554 52 185 7.0 13.0 0.00 0.00 0.00 55 998.4
20260504081600 49 207 4.0 8.0 0.00 0.00 0.00 59 1000.2
20260504081057 49 178 5.0 9.0 0.00 0.00 0.00 59 1000.2
20260504080558 49 288 3.0 9.0 0.00 0.00 0.00 59 1000.3
20260504080103 49 200 3.0 8.0 0.00 0.00 0.00 59 1000.4
20260504060105 51 151 1.0 7.0 0.00 0.00 0.00 54 1002.4
20260504050556 48 228 0.0 3.0 0.00 0.00 0.00 59 1003.4
20260504045555 48 193 1.0 3.0 0.00 0.00 0.00 60 1003.4
20260504045055 47 199 1.0 4.0 0.00 0.00 0.00 62 1003.5
20260504044558 47 240 2.0 4.0 0.00 0.00 0.00 62 1003.6
20260504044055 47 274 2.0 4.0 0.00 0.00 0.00 62 1003.7
20260504043555 47 276 2.0 4.0 0.00 0.00 0.00 62 1003.8
20260504043059 47 284 1.0 3.0 0.00 0.00 0.00 62 1003.8
20260504042554 48 276 1.0 3.0 0.00 0.00 0.00 62 1003.9
20260504042053 48 212 0.0 2.0 0.00 0.00 0.00 62 1004.0
20260504041554 48 174 0.0 2.0 0.00 0.00 0.00 61 1004.0
20260504041052 48 214 0.0 2.0 0.00 0.00 0.00 61 1004.1
20260504040554 48 298 0.0 2.0 0.00 0.00 0.00 61 1004.2
20260504040059 48 243 0.0 2.0 0.00 0.00 0.00 60 1004.3
20260504035552 48 228 1.0 2.0 0.00 0.00 0.00 59 1004.4
20260504035055 48 217 1.0 3.0 0.00 0.00 0.00 58 1004.5
20260504034623 48 231 1.0 3.0 0.00 0.00 0.00 58 1004.5
20260504034057 49 245 1.0 2.0 0.00 0.00 0.00 58 1004.6
20260504033555 49 272 0.0 2.0 0.00 0.00 0.00 55 1004.7
20260504033055 49 159 1.0 2.0 0.00 0.00 0.00 54 1004.7
20260504032554 49 195 0.0 1.0 0.00 0.00 0.00 54 1004.7
20260504032057 49 0 0.0 2.0 0.00 0.00 0.00 55 1004.8
20260504031555 50 0 0.0 2.0 0.00 0.00 0.00 55 1004.9
20260504031055 50 232 1.0 2.0 0.00 0.00 0.00 55 1004.8
20260504030555 50 195 1.0 2.0 0.00 0.00 0.00 54 1004.9
20260504030055 50 181 0.0 2.0 0.00 0.00 0.00 54 1005.0
20260504025555 50 226 1.0 2.0 0.00 0.00 0.00 54 1005.1
20260504025056 50 232 1.0 2.0 0.00 0.00 0.00 53 1005.1
20260504024555 51 205 0.0 2.0 0.00 0.00 0.00 53 1005.1
20260504024052 51 198 0.0 2.0 0.00 0.00 0.00 52 1005.1
20260504023556 51 211 0.0 1.0 0.00 0.00 0.00 51 1005.1
20260504023058 52 0 0.0 1.0 0.00 0.00 0.00 52 1005.1
20260504022553 52 210 0.0 1.0 0.00 0.00 0.00 50 1005.2
20260504022055 52 207 0.0 1.0 0.00 0.00 0.00 50 1005.1
20260504021554 52 0 0.0 1.0 0.00 0.00 0.00 50 1005.1
20260504021056 53 0 0.0 1.0 0.00 0.00 0.00 50 1005.3
20260504020554 53 200 0.0 0.0 0.00 0.00 0.00 48 1005.1
20260504020117 54 194 0.0 0.0 0.00 0.00 0.00 47 1005.1
20260504015552 55 0 0.0 0.0 0.00 0.00 0.00 46 1005.1
20260504015051 56 0 0.0 1.0 0.00 0.00 0.00 44 1005.1
20260504014600 56 0 0.0 2.0 0.00 0.00 0.00 43 1005.1
20260504014055 57 194 0.0 2.0 0.00 0.00 0.00 42 1005.1
20260504013558 57 190 0.0 1.0 0.00 0.00 0.00 43 1005.1
20260504013123 58 0 0.0 0.0 0.00 0.00 0.00 43 1005.1
20260504012555 58 0 0.0 1.0 0.00 0.00 0.00 42 1005.1
20260504012051 59 0 0.0 2.0 0.00 0.00 0.00 40 1005.1
20260504011554 60 0 1.0 2.0 0.00 0.00 0.00 38 1005.1
20260504011052 60 193 0.0 1.0 0.00 0.00 0.00 39 1005.1
20260504010552 61 221 0.0 3.0 0.00 0.00 0.00 37 1005.1
20260504010055 62 200 0.0 3.0 0.00 0.00 0.00 36 1005.1
20260504005554 62 262 1.0 3.0 0.00 0.00 0.00 35 1005.1
20260504005054 63 289 2.0 4.0 0.00 0.00 0.00 35 1005.1
20260504004558 64 288 2.0 4.0 0.00 0.00 0.00 35 1005.1
20260504004053 64 303 1.0 4.0 0.00 0.00 0.00 33 1005.1
20260504003553 64 307 2.0 7.0 0.00 0.00 0.00 33 1005.1
20260504003057 65 287 2.0 7.0 0.00 0.00 0.00 32 1005.1
20260504002556 65 314 3.0 7.0 0.00 0.00 0.00 31 1005.1
20260504002056 66 312 1.0 5.0 0.00 0.00 0.00 32 1005.2
20260504001556 66 294 2.0 5.0 0.00 0.00 0.00 29 1005.2
20260504001057 67 294 2.0 5.0 0.00 0.00 0.00 31 1005.3
20260504000553 67 291 2.0 5.0 0.00 0.00 0.00 29 1005.3
20260504000107 68 283 3.0 5.0 0.00 0.00 0.00 30 1005.3
20260503235556 68 271 3.0 7.0 0.00 0.00 0.00 30 1005.4
20260503235058 68 255 2.0 7.0 0.00 0.00 0.00 29 1005.3
20260503234558 69 299 2.0 6.0 0.00 0.00 0.00 29 1005.3
20260503234057 69 297 2.0 6.0 0.00 0.00 0.00 29 1005.3
20260503233559 69 289 2.0 7.0 0.00 0.00 0.00 29 1005.4
20260503233058 69 314 3.0 8.0 0.00 0.00 0.00 29 1005.4
20260503232556 69 295 4.0 8.0 0.00 0.00 0.00 29 1005.4
20260503232056 69 307 4.0 8.0 0.00 0.00 0.00 28 1005.4
20260503231555 69 303 3.0 7.0 0.00 0.00 0.00 28 1005.5
20260503231100 69 271 3.0 9.0 0.00 0.00 0.00 27 1005.4
20260503230557 69 311 3.0 9.0 0.00 0.00 0.00 26 1005.5
20260503230101 69 286 4.0 10.0 0.00 0.00 0.00 28 1005.5
20260503225553 70 319 4.0 10.0 0.00 0.00 0.00 27 1005.5
20260503225057 70 285 2.0 9.0 0.00 0.00 0.00 29 1005.5
20260503224601 70 259 2.0 12.0 0.00 0.00 0.00 30 1005.5
20260503224057 69 286 6.0 12.0 0.00 0.00 0.00 31 1005.4
20260503223555 70 308 4.0 12.0 0.00 0.00 0.00 30 1005.4
20260503223056 70 297 3.0 7.0 0.00 0.00 0.00 31 1005.4
20260503222555 70 294 3.0 8.0 0.00 0.00 0.00 30 1005.4
20260503222056 70 297 4.0 9.0 0.00 0.00 0.00 28 1005.4
20260503221603 70 291 4.0 9.0 0.00 0.00 0.00 28 1005.4
20260503221058 70 189 4.0 7.0 0.00 0.00 0.00 28 1005.5
20260503220557 70 262 3.0 7.0 0.00 0.00 0.00 27 1005.4
20260503220055 70 307 4.0 9.0 0.00 0.00 0.00 28 1005.5